Corpus Christi, TX

1:31 AM CDT on April 28, 2017 (GMT -0500)
Corpus Christi International

Weather History for KCRP - November, 2013

Change the Weather History Date:

Wednesday, November 13, 2013

  Actual Average Record
Temperature  
Mean Temperature 53 °F 67 °F  
Max Temperature 61 °F 77 °F 93 °F (1951)
Min Temperature 44 °F 57 °F 36 °F (1986)
Degree Days  
Heating Degree Days 12 2  
Month to date heating degree days 17 21  
Since 1 July heating degree days 17 31  
Cooling Degree Days 0 4  
Month to date cooling degree days 62 70  
Year to date cooling degree days 4045 3421  
Growing Degree Days 3 (Base 50)    
Moisture  
Dew Point 33 °F    
Average Humidity 46    
Maximum Humidity 68    
Minimum Humidity 24    
Precipitation  
Precipitation 0.00 in 0.06 in 2.40 in (1947)
Month to date precipitation 0.52 1.05  
Year to date precipitation 20.29 29.01  
Snow  
Snow 0.00 in - - ()
Month to date snowfall 0.0  
Since 1 July snowfall 0.0  
Since 1 September snowfall 0.0  
Snow Depth 0.00 in    
Sea Level Pressure  
Sea Level Pressure 30.51 in    
Wind  
Wind Speed 11 mph (NNE)    
Max Wind Speed 24 mph    
Max Gust Speed 31 mph    
Visibility 10 miles    
Events      
T = Trace of Precipitation, MM = Missing Value Source: NWS Daily Summary

Daily Weather History Graph

Daily Weather History Graph

Search for Another Location

Airport or City:

Trip Planner

Search our weather history database for the weather conditions in past years. The results will help you decide how hot, cold, wet, or windy it might be!

Date:

Astronomy

Nov. 13, 2013 Rise Set
Actual Time 6:49 AM CST 5:38 PM CST
Civil Twilight 6:25 AM CST 6:03 PM CST
Nautical Twilight 5:56 AM CST 6:31 PM CST
Astronomical Twilight 5:29 AM CST 6:59 PM CST
Moon 3:09 PM CST (11/13) 3:03 AM CST (11/13)
Length of Visible Light 11h 37m
Length of Day
10h 48m
Waxing Gibbous, 85% of the Moon is Illuminated
Nov 13
Waxing Gibbous
Nov 17
Full
Nov 25
Last Quarter
Dec 2
New
Dec 9
First Quarter

Hourly Weather History & Observations

Time (CST) Temp. Windchill Dew Point Humidity Pressure Visibility Wind Dir Wind Speed Gust Speed Precip Events Conditions
12:51 AM 55.9 °F - 45.0 °F 67% 30.53 in 10.0 mi NE 13.8 mph - N/A   Overcast
1:51 AM 55.0 °F - 41.0 °F 59% 30.54 in 10.0 mi NE 21.9 mph - N/A   Scattered Clouds
2:51 AM 52.0 °F - 41.0 °F 66% 30.55 in 10.0 mi North 16.1 mph - N/A   Partly Cloudy
3:51 AM 48.9 °F - 35.1 °F 59% 30.55 in 10.0 mi North 16.1 mph - N/A   Partly Cloudy
4:51 AM 48.0 °F - 33.1 °F 56% 30.56 in 10.0 mi North 16.1 mph - N/A   Clear
5:51 AM 46.9 °F - 32.0 °F 56% 30.56 in 10.0 mi North 21.9 mph 27.6 mph N/A   Clear
6:51 AM 45.0 °F 37.1 °F 32.0 °F 60% 30.58 in 10.0 mi North 19.6 mph - N/A   Partly Cloudy
7:51 AM 45.0 °F 37.6 °F 33.1 °F 63% 30.60 in 10.0 mi North 17.3 mph 24.2 mph N/A   Partly Cloudy
8:51 AM 45.0 °F 37.9 °F 33.1 °F 63% 30.60 in 10.0 mi NNE 16.1 mph - N/A   Partly Cloudy
9:51 AM 46.0 °F 39.3 °F 32.0 °F 58% 30.60 in 10.0 mi NNE 16.1 mph - N/A   Partly Cloudy
10:51 AM 50.0 °F - 30.9 °F 48% 30.60 in 10.0 mi NNE 9.2 mph - N/A   Partly Cloudy
11:51 AM 52.0 °F - 30.0 °F 43% 30.57 in 10.0 mi NNE 9.2 mph - N/A   Partly Cloudy
12:51 PM 54.0 °F - 30.0 °F 40% 30.53 in 10.0 mi North 5.8 mph - N/A   Partly Cloudy
1:51 PM 57.0 °F - 28.0 °F 33% 30.49 in 10.0 mi NE 6.9 mph - N/A   Partly Cloudy
2:51 PM 59.0 °F - 27.0 °F 29% 30.46 in 10.0 mi NNE 8.1 mph - N/A   Partly Cloudy
3:51 PM 59.0 °F - 23.0 °F 25% 30.45 in 10.0 mi NNE 10.4 mph - N/A   Partly Cloudy
4:51 PM 57.0 °F - 23.0 °F 27% 30.44 in 10.0 mi NE 8.1 mph - N/A   Partly Cloudy
5:51 PM 54.0 °F - 30.0 °F 40% 30.44 in 10.0 mi SSE 6.9 mph - N/A   Partly Cloudy
6:51 PM 51.1 °F - 33.1 °F 50% 30.44 in 10.0 mi SSE 6.9 mph - N/A   Partly Cloudy
7:51 PM 48.9 °F - 36.0 °F 61% 30.46 in 10.0 mi South 3.5 mph - N/A   Partly Cloudy
8:51 PM 48.0 °F - 35.1 °F 61% 30.45 in 10.0 mi Calm Calm - N/A   Clear
9:51 PM 46.0 °F - 34.0 °F 63% 30.45 in 10.0 mi Calm Calm - N/A   Clear
10:51 PM 45.0 °F - 30.9 °F 58% 30.43 in 10.0 mi Calm Calm - N/A   Clear
11:51 PM 46.0 °F 43.1 °F 35.1 °F 66% 30.40 in 10.0 mi North 5.8 mph - N/A   Clear